| time (UTC) | temp C | wind direction | speed KPH | gust KPH | rain 1hr cm | rain 24hr cm | rain mn cm | humidity % | barometer mb |
| 20260509182933 | 30 | 347 | 8.0 | 12.9 | 0.00 | 0.00 | 0.00 | 61 | 1010.4 |
| 20260509182233 | 30 | 31 | 8.0 | 12.9 | 0.00 | 0.00 | 0.00 | 61 | 1010.4 |
| 20260509181533 | 30 | 298 | 12.9 | 12.9 | 0.00 | 0.00 | 0.00 | 61 | 1010.7 |
| 20260509180833 | 30 | 9 | 8.0 | 9.7 | 0.00 | 0.00 | 0.00 | 61 | 1010.4 |
| 20260509174733 | 30 | 8 | 3.2 | 12.9 | 0.00 | 0.00 | 0.00 | 61 | 1010.7 |
| 20260509174033 | 30 | 16 | 8.0 | 12.9 | 0.00 | 0.00 | 0.00 | 61 | 1011.1 |
| 20260509173333 | 30 | 7 | 3.2 | 12.9 | 0.00 | 0.00 | 0.00 | 62 | 1011.1 |
| 20260509172635 | 30 | 9 | 3.2 | 12.9 | 0.00 | 0.00 | 0.00 | 61 | 1011.1 |
| 20260509171932 | 30 | 5 | 8.0 | 12.9 | 0.00 | 0.00 | 0.00 | 62 | 1011.1 |
| 20260509171233 | 29 | 10 | 3.2 | 12.9 | 0.00 | 0.00 | 0.00 | 63 | 1011.1 |
| 20260509170532 | 29 | 20 | 8.0 | 12.9 | 0.00 | 0.00 | 0.00 | 62 | 1011.4 |
| 20260509165833 | 30 | 354 | 12.9 | 12.9 | 0.00 | 0.00 | 0.00 | 63 | 1011.1 |
| 20260509165133 | 30 | 353 | 0.0 | 12.9 | 0.00 | 0.00 | 0.00 | 63 | 1011.1 |
| 20260509163733 | 29 | 2 | 12.9 | 16.1 | 0.00 | 0.00 | 0.00 | 65 | 1011.4 |
| 20260509163033 | 28 | 2 | 8.0 | 16.1 | 0.00 | 0.00 | 0.00 | 64 | 1011.1 |
| 20260509162333 | 28 | 12 | 3.2 | 16.1 | 0.00 | 0.00 | 0.00 | 66 | 1011.4 |
| 20260509161633 | 28 | 6 | 3.2 | 16.1 | 0.00 | 0.00 | 0.00 | 65 | 1011.1 |
| 20260509160932 | 28 | 1 | 3.2 | 16.1 | 0.00 | 0.00 | 0.00 | 66 | 1011.1 |
| 20260509160233 | 27 | 1 | 3.2 | 16.1 | 0.00 | 0.00 | 0.00 | 67 | 1011.1 |
| 20260509155532 | 27 | 35 | 8.0 | 16.1 | 0.00 | 0.00 | 0.00 | 67 | 1011.4 |
| 20260509154833 | 27 | 352 | 8.0 | 16.1 | 0.00 | 0.00 | 0.00 | 69 | 1011.1 |
| 20260509154132 | 26 | 4 | 22.5 | 16.1 | 0.00 | 0.00 | 0.00 | 70 | 1011.1 |
| 20260509152732 | 26 | 4 | 8.0 | 9.7 | 0.00 | 0.00 | 0.00 | 73 | 1011.4 |
| 20260509152033 | 25 | 7 | 0.0 | 9.7 | 0.00 | 0.00 | 0.00 | 74 | 1011.1 |
| 20260509150632 | 25 | 339 | 12.9 | 9.7 | 0.00 | 0.00 | 0.00 | 75 | 1011.1 |
| 20260509145932 | 25 | 2 | 8.0 | 12.9 | 0.00 | 0.00 | 0.00 | 76 | 1011.1 |
| 20260509143832 | 24 | 8 | 8.0 | 12.9 | 0.00 | 0.00 | 0.00 | 79 | 1011.4 |
| 20260509143132 | 23 | 358 | 0.0 | 12.9 | 0.00 | 0.00 | 0.00 | 79 | 1011.1 |
| 20260509142432 | 23 | 355 | 8.0 | 12.9 | 0.00 | 0.00 | 0.00 | 81 | 1011.4 |
| 20260509141032 | 23 | 8 | 3.2 | 12.9 | 0.00 | 0.00 | 0.00 | 81 | 1011.1 |
| 20260509140333 | 22 | 17 | 8.0 | 9.7 | 0.00 | 0.00 | 0.00 | 82 | 1011.4 |
| 20260509135632 | 22 | 2 | 0.0 | 9.7 | 0.00 | 0.00 | 0.00 | 82 | 1011.1 |
| 20260509134933 | 22 | 352 | 8.0 | 9.7 | 0.00 | 0.00 | 0.00 | 82 | 1011.4 |
| 20260509134232 | 22 | 348 | 8.0 | 9.7 | 0.00 | 0.00 | 0.00 | 83 | 1011.1 |
| 20260509133532 | 22 | 1 | 3.2 | 9.7 | 0.00 | 0.00 | 0.00 | 83 | 1010.7 |
| 20260509132132 | 22 | 7 | 8.0 | 9.7 | 0.00 | 0.00 | 0.00 | 83 | 1011.1 |
| 20260509131432 | 22 | 319 | 8.0 | 9.7 | 0.00 | 0.00 | 0.00 | 83 | 1010.7 |
| 20260509130732 | 21 | 354 | 3.2 | 9.7 | 0.00 | 0.00 | 0.00 | 83 | 1011.1 |
| 20260509130031 | 22 | 1 | 0.0 | 9.7 | 0.00 | 0.00 | 0.00 | 83 | 1010.7 |
| 20260509125531 | 22 | 4 | 3.2 | 9.7 | 0.00 | 0.00 | 0.00 | 83 | 1010.7 |
| 20260509124831 | 21 | 5 | 0.0 | 9.7 | 0.00 | 0.00 | 0.00 | 84 | 1010.7 |
| 20260509124132 | 21 | 358 | 3.2 | 9.7 | 0.00 | 0.00 | 0.00 | 84 | 1010.7 |
| 20260509122732 | 21 | 0 | 0.0 | 9.7 | 0.00 | 0.00 | 0.00 | 86 | 1010.7 |
| 20260509122031 | 21 | 9 | 3.2 | 9.7 | 0.00 | 0.00 | 0.00 | 87 | 1010.4 |
| 20260509120632 | 21 | 6 | 0.0 | 6.4 | 0.00 | 0.00 | 0.00 | 88 | 1010.7 |
| 20260509115931 | 20 | 6 | 3.2 | 6.4 | 0.00 | 0.00 | 0.00 | 88 | 1010.4 |
| 20260509113831 | 21 | 10 | 3.2 | 6.4 | 0.00 | 0.00 | 0.00 | 88 | 1010.1 |
| 20260509113131 | 21 | 11 | 0.0 | 6.4 | 0.00 | 0.00 | 0.00 | 88 | 1010.1 |
| 20260509111731 | 21 | 14 | 3.2 | 6.4 | 0.00 | 0.00 | 0.00 | 88 | 1009.7 |
| 20260509111031 | 21 | 14 | 0.0 | 6.4 | 0.00 | 0.00 | 0.00 | 88 | 1009.7 |
| 20260509110331 | 21 | 15 | 8.0 | 6.4 | 0.00 | 0.00 | 0.00 | 88 | 1009.4 |
| 20260509105631 | 21 | 30 | 3.2 | 6.4 | 0.00 | 0.00 | 0.00 | 88 | 1009.7 |
| 20260509104932 | 21 | 11 | 0.0 | 6.4 | 0.00 | 0.00 | 0.00 | 87 | 1009.7 |
| 20260509103531 | 21 | 12 | 0.0 | 6.4 | 0.00 | 0.00 | 0.00 | 88 | 1009.7 |
| 20260509102131 | 21 | 11 | 0.0 | 6.4 | 0.00 | 0.00 | 0.00 | 88 | 1009.7 |
| 20260509101431 | 21 | 11 | 0.0 | 6.4 | 0.00 | 0.00 | 0.00 | 88 | 1009.4 |
| 20260509095331 | 21 | 356 | 8.0 | 12.9 | 0.00 | 0.00 | 0.00 | 88 | 1009.4 |
| 20260509094631 | 21 | 346 | 8.0 | 16.1 | 0.00 | 0.00 | 0.00 | 88 | 1009.1 |
| 20260509093231 | 20 | 357 | 3.2 | 16.1 | 0.00 | 0.00 | 0.00 | 87 | 1008.7 |
| 20260509092531 | 20 | 13 | 0.0 | 16.1 | 0.00 | 0.00 | 0.00 | 87 | 1007.7 |
| 20260509091831 | 20 | 39 | 8.0 | 16.1 | 0.00 | 0.00 | 0.00 | 87 | 1007.7 |
| 20260509090431 | 20 | 10 | 3.2 | 16.1 | 0.00 | 0.00 | 0.00 | 86 | 1007.4 |
| 20260509085731 | 20 | 6 | 0.0 | 16.1 | 0.00 | 0.00 | 0.00 | 86 | 1007.7 |
| 20260509085031 | 21 | 127 | 12.9 | 16.1 | 0.00 | 0.00 | 0.00 | 85 | 1007.4 |
| 20260509083632 | 21 | 20 | 12.9 | 16.1 | 0.00 | 0.00 | 0.00 | 85 | 1008.4 |
| 20260509082931 | 21 | 23 | 12.9 | 12.9 | 0.00 | 0.00 | 0.00 | 85 | 1008.7 |
| 20260509082231 | 21 | 23 | 3.2 | 6.4 | 0.00 | 0.00 | 0.00 | 85 | 1009.4 |
| 20260509080831 | 21 | 11 | 0.0 | 6.4 | 0.00 | 0.00 | 0.00 | 85 | 1009.7 |
| 20260509080131 | 21 | 22 | 3.2 | 6.4 | 0.00 | 0.00 | 0.00 | 84 | 1010.4 |
| 20260509075431 | 21 | 13 | 0.0 | 6.4 | 0.00 | 0.00 | 0.00 | 84 | 1010.4 |
| 20260509074731 | 21 | 20 | 0.0 | 6.4 | 0.00 | 0.00 | 0.00 | 84 | 1010.4 |
| 20260509074031 | 21 | 8 | 3.2 | 6.4 | 0.00 | 0.00 | 0.00 | 85 | 1010.7 |
| 20260509073331 | 21 | 14 | 0.0 | 6.4 | 0.00 | 0.00 | 0.00 | 85 | 1010.7 |
| 20260509072631 | 21 | 7 | 0.0 | 6.4 | 0.00 | 0.00 | 0.00 | 86 | 1011.1 |
| 20260509071931 | 21 | 3 | 3.2 | 6.4 | 0.00 | 0.00 | 0.00 | 86 | 1011.4 |
| 20260509071231 | 21 | 9 | 3.2 | 3.2 | 0.00 | 0.00 | 0.00 | 85 | 1011.4 |
| 20260509065831 | 20 | 12 | 0.0 | 3.2 | 0.00 | 0.00 | 0.00 | 84 | 1011.1 |
| 20260509065133 | 21 | 12 | 0.0 | 3.2 | 0.00 | 0.00 | 0.00 | 84 | 1010.7 |
| 20260509064431 | 21 | 13 | 0.0 | 3.2 | 0.00 | 0.00 | 0.00 | 83 | 1010.7 |
| 20260509063730 | 21 | 9 | 0.0 | 3.2 | 0.00 | 0.00 | 0.00 | 83 | 1011.1 |
| 20260509063031 | 21 | 9 | 0.0 | 3.2 | 0.00 | 0.00 | 0.00 | 83 | 1011.1 |
| 20260509062330 | 21 | 13 | 0.0 | 3.2 | 0.00 | 0.00 | 0.00 | 82 | 1011.1 |
| 20260509061630 | 21 | 13 | 0.0 | 3.2 | 0.00 | 0.00 | 0.00 | 82 | 1011.4 |
| 20260509060231 | 21 | 12 | 0.0 | 3.2 | 0.00 | 0.00 | 0.00 | 82 | 1011.8 |
| 20260509055531 | 21 | 12 | 0.0 | 3.2 | 0.00 | 0.00 | 0.00 | 81 | 1011.4 |
| 20260509054830 | 21 | 12 | 0.0 | 3.2 | 0.00 | 0.00 | 0.00 | 81 | 1011.8 |
| 20260509054131 | 21 | 11 | 0.0 | 3.2 | 0.00 | 0.00 | 0.00 | 81 | 1012.1 |
| 20260509053430 | 21 | 8 | 0.0 | 6.4 | 0.00 | 0.00 | 0.00 | 81 | 1011.8 |
| 20260509050631 | 22 | 9 | 0.0 | 9.7 | 0.00 | 0.00 | 0.00 | 79 | 1010.7 |
| 20260509045931 | 22 | 10 | 0.0 | 9.7 | 0.00 | 0.00 | 0.00 | 79 | 1011.1 |
| 20260509045231 | 22 | 5 | 0.0 | 9.7 | 0.00 | 0.00 | 0.00 | 79 | 1011.1 |
| 20260509044530 | 22 | 64 | 8.0 | 9.7 | 0.00 | 0.00 | 0.00 | 79 | 1010.4 |
| 20260509043830 | 22 | 9 | 0.0 | 9.7 | 0.00 | 0.00 | 0.00 | 78 | 1010.4 |
| 20260509041730 | 22 | 11 | 3.2 | 6.4 | 0.00 | 0.00 | 0.00 | 78 | 1011.1 |
| 20260509040330 | 22 | 5 | 0.0 | 6.4 | 0.00 | 0.00 | 0.00 | 78 | 1011.4 |
| 20260509034931 | 22 | 8 | 0.0 | 6.4 | 0.00 | 0.00 | 0.00 | 77 | 1011.1 |
| 20260509034230 | 22 | 16 | 0.0 | 6.4 | 0.00 | 0.00 | 0.00 | 77 | 1010.7 |
| 20260509033535 | 22 | 42 | 8.0 | 6.4 | 0.00 | 0.00 | 0.00 | 77 | 1010.4 |
| 20260509032830 | 22 | 9 | 0.0 | 6.4 | 0.00 | 0.00 | 0.00 | 77 | 1010.7 |
| 20260509031431 | 22 | 9 | 0.0 | 6.4 | 0.00 | 0.00 | 0.00 | 77 | 1010.4 |
| 20260509030730 | 22 | 10 | 0.0 | 6.4 | 0.00 | 0.00 | 0.00 | 77 | 1010.4 |
| 20260509030031 | 22 | 10 | 0.0 | 12.9 | 0.00 | 0.00 | 0.00 | 77 | 1010.1 |
| 20260509025330 | 22 | 9 | 0.0 | 12.9 | 0.00 | 0.00 | 0.00 | 76 | 1010.1 |
| 20260509024630 | 22 | 18 | 3.2 | 12.9 | 0.00 | 0.00 | 0.00 | 76 | 1010.1 |
| 20260509023930 | 22 | 10 | 3.2 | 12.9 | 0.00 | 0.00 | 0.00 | 76 | 1010.1 |
| 20260509023230 | 22 | 20 | 0.0 | 12.9 | 0.00 | 0.00 | 0.00 | 75 | 1009.7 |
| 20260509022530 | 22 | 8 | 0.0 | 12.9 | 0.00 | 0.00 | 0.00 | 75 | 1010.1 |
| 20260509021830 | 22 | 12 | 3.2 | 12.9 | 0.00 | 0.00 | 0.00 | 75 | 1009.7 |
| 20260509020430 | 22 | 77 | 3.2 | 9.7 | 0.00 | 0.00 | 0.00 | 75 | 1009.7 |
| 20260509015730 | 22 | 11 | 3.2 | 9.7 | 0.00 | 0.00 | 0.00 | 75 | 1009.7 |
| 20260509015030 | 22 | 15 | 3.2 | 9.7 | 0.00 | 0.00 | 0.00 | 74 | 1009.7 |
| 20260509014330 | 22 | 7 | 3.2 | 9.7 | 0.00 | 0.00 | 0.00 | 74 | 1009.7 |
| 20260509013630 | 22 | 15 | 0.0 | 9.7 | 0.00 | 0.00 | 0.00 | 74 | 1010.1 |
| 20260509012930 | 22 | 92 | 8.0 | 9.7 | 0.00 | 0.00 | 0.00 | 74 | 1009.7 |
| 20260509012230 | 22 | 26 | 3.2 | 9.7 | 0.00 | 0.00 | 0.00 | 74 | 1009.7 |
| 20260509011530 | 22 | 30 | 0.0 | 9.7 | 0.00 | 0.00 | 0.00 | 74 | 1009.4 |
| 20260509010832 | 22 | 14 | 3.2 | 9.7 | 0.00 | 0.00 | 0.00 | 73 | 1009.1 |
| 20260509010132 | 22 | 13 | 3.2 | 9.7 | 0.00 | 0.00 | 0.00 | 73 | 1009.1 |
| 20260509005432 | 22 | 11 | 3.2 | 9.7 | 0.00 | 0.00 | 0.00 | 73 | 1009.1 |
| 20260509004732 | 22 | 50 | 8.0 | 22.5 | 0.00 | 0.00 | 0.00 | 72 | 1009.1 |
| 20260509002632 | 23 | 13 | 3.2 | 22.5 | 0.00 | 0.00 | 0.00 | 72 | 1009.1 |
| 20260509001932 | 23 | 29 | 3.2 | 22.5 | 0.00 | 0.00 | 0.00 | 72 | 1009.1 |
| 20260509001232 | 23 | 82 | 8.0 | 22.5 | 0.00 | 0.00 | 0.00 | 71 | 1009.1 |
| 20260509000532 | 23 | 14 | 3.2 | 22.5 | 0.00 | 0.00 | 0.00 | 71 | 1009.1 |
| 20260508235832 | 23 | 78 | 12.9 | 12.9 | 0.00 | 0.00 | 0.00 | 71 | 1009.4 |
| 20260508235132 | 23 | 31 | 3.2 | 12.9 | 0.00 | 0.00 | 0.00 | 71 | 1009.4 |
| 20260508234432 | 23 | 117 | 12.9 | 16.1 | 0.00 | 0.00 | 0.00 | 70 | 1009.4 |
| 20260508233032 | 23 | 0 | 8.0 | 19.3 | 0.00 | 0.00 | 0.00 | 70 | 1009.4 |
| 20260508232332 | 23 | 14 | 3.2 | 19.3 | 0.00 | 0.00 | 0.00 | 70 | 1009.4 |
| 20260508231632 | 23 | 53 | 3.2 | 19.3 | 0.00 | 0.00 | 0.00 | 69 | 1009.1 |
| 20260508230932 | 23 | 2 | 8.0 | 19.3 | 0.00 | 0.00 | 0.00 | 69 | 1009.4 |
| 20260508225531 | 23 | 51 | 3.2 | 19.3 | 0.00 | 0.00 | 0.00 | 69 | 1009.7 |
| 20260508224832 | 23 | 58 | 27.4 | 19.3 | 0.00 | 0.00 | 0.00 | 68 | 1009.4 |
| 20260508223432 | 23 | 1 | 22.5 | 22.5 | 0.00 | 0.00 | 0.00 | 68 | 1009.7 |
| 20260508222731 | 23 | 52 | 8.0 | 22.5 | 0.00 | 0.00 | 0.00 | 68 | 1009.4 |
| 20260508221332 | 23 | 8 | 3.2 | 22.5 | 0.00 | 0.00 | 0.00 | 67 | 1009.7 |
| 20260508220631 | 23 | 11 | 8.0 | 22.5 | 0.00 | 0.00 | 0.00 | 67 | 1009.7 |
| 20260508215931 | 23 | 3 | 8.0 | 22.5 | 0.00 | 0.00 | 0.00 | 66 | 1009.7 |
| 20260508215232 | 24 | 41 | 12.9 | 22.5 | 0.00 | 0.00 | 0.00 | 66 | 1009.7 |
| 20260508214532 | 24 | 31 | 3.2 | 19.3 | 0.00 | 0.00 | 0.00 | 66 | 1009.7 |
| 20260508213832 | 24 | 323 | 12.9 | 19.3 | 0.00 | 0.00 | 0.00 | 67 | 1009.7 |
| 20260508213132 | 24 | 88 | 12.9 | 19.3 | 0.00 | 0.00 | 0.00 | 67 | 1009.7 |
| 20260508212431 | 24 | 0 | 3.2 | 19.3 | 0.00 | 0.00 | 0.00 | 69 | 1009.4 |
| 20260508211731 | 23 | 351 | 8.0 | 12.9 | 0.00 | 0.00 | 0.00 | 71 | 1009.4 |
| 20260508211032 | 22 | 11 | 3.2 | 12.9 | 0.00 | 0.00 | 0.00 | 72 | 1009.7 |
| 20260508210331 | 22 | 51 | 12.9 | 12.9 | 0.00 | 0.00 | 0.00 | 69 | 1009.7 |
| 20260508205632 | 22 | 358 | 12.9 | 9.7 | 0.00 | 0.00 | 0.00 | 69 | 1010.4 |
| 20260508204932 | 22 | 62 | 8.0 | 9.7 | 0.00 | 0.00 | 0.00 | 69 | 1011.1 |
| 20260508204231 | 22 | 14 | 3.2 | 9.7 | 0.00 | 0.00 | 0.00 | 68 | 1011.1 |
| 20260508203531 | 22 | 20 | 0.0 | 9.7 | 0.00 | 0.00 | 0.00 | 68 | 1011.4 |
| 20260508202832 | 22 | 5 | 0.0 | 12.9 | 0.00 | 0.00 | 0.00 | 68 | 1011.8 |
| 20260508202131 | 22 | 28 | 8.0 | 12.9 | 0.00 | 0.00 | 0.00 | 67 | 1011.8 |
| 20260508200731 | 23 | 15 | 0.0 | 16.1 | 0.00 | 0.00 | 0.00 | 66 | 1011.4 |
| 20260508200031 | 23 | 10 | 12.9 | 16.1 | 0.00 | 0.00 | 0.00 | 66 | 1011.4 |
| 20260508195331 | 23 | 7 | 0.0 | 16.1 | 0.00 | 0.00 | 0.00 | 66 | 1011.4 |
| 20260508194631 | 23 | 14 | 8.0 | 16.1 | 0.00 | 0.00 | 0.00 | 66 | 1011.1 |
| 20260508193232 | 24 | 21 | 8.0 | 16.1 | 0.00 | 0.00 | 0.00 | 66 | 1011.4 |
| 20260508192531 | 23 | 355 | 8.0 | 16.1 | 0.00 | 0.00 | 0.00 | 65 | 1011.8 |
| 20260508191831 | 23 | 24 | 8.0 | 16.1 | 0.00 | 0.00 | 0.00 | 65 | 1011.8 |
| 20260508191131 | 24 | 21 | 3.2 | 16.1 | 0.00 | 0.00 | 0.00 | 65 | 1011.8 |
| 20260508190431 | 24 | 54 | 22.5 | 22.5 | 0.00 | 0.00 | 0.00 | 64 | 1011.8 |
| 20260508185731 | 24 | 58 | 12.9 | 22.5 | 0.00 | 0.00 | 0.00 | 64 | 1011.8 |
| 20260508185031 | 24 | 31 | 12.9 | 22.5 | 0.00 | 0.00 | 0.00 | 64 | 1012.1 |
| 20260508183631 | 25 | 122 | 8.0 | 22.5 | 0.00 | 0.00 | 0.00 | 63 | 1012.1 |